Location: Charlotte
(35.2269°N, 80.8433°W)
Time: 23:36:55
(UTC-04:00)

ISS - Visible Passes

Search period start: 26 September 2016 00:00
Search period end: 06 October 2016 00:00
Orbit: 400 x 410 km, 51.6° (Epoch: 27 September)

Date Brightness Start Highest point End Pass type
(mag) Time Alt. Az. Time Alt. Az. Time Alt. Az.
26 Sep -0.9 05:51:54 13° S 05:51:54 13° S 05:52:23 10° S visible
26 Sep -1.7 20:47:57 10° SSW 20:49:30 24° SSW 20:49:30 24° SSW visible
27 Sep -2.0 19:56:34 10° S 19:59:09 22° SE 20:00:32 17° E visible
27 Sep -0.2 21:32:38 10° W 21:33:16 14° W 21:33:16 14° W visible
28 Sep -2.8 20:40:10 10° WSW 20:43:21 56° NW 20:44:05 43° N visible
29 Sep -3.4 19:48:04 10° SW 19:51:16 65° SE 19:54:30 10° NE visible
29 Sep -0.2 21:26:08 10° WNW 21:27:22 14° NW 21:27:22 14° NW visible
30 Sep -1.1 20:33:03 10° W 20:35:44 23° NNW 20:37:47 14° NNE visible
01 Oct -2.2 19:40:24 10° WSW 19:43:30 42° NW 19:46:38 10° NE visible
02 Oct -0.4 20:26:45 10° NW 20:28:14 12° NNW 20:29:44 10° N visible
03 Oct -0.9 19:33:24 10° W 19:35:51 19° NNW 19:38:18 10° NNE visible
05 Oct -0.4 19:27:27 10° NW 19:28:19 11° NNW 19:29:10 10° N visible
